Location: Casone le Fosse
(44.6547°N, 12.1103°E)
Time: 04:22:22
(UTC+00:00)

Helios 1A Rocket - Pass Details

Date: 29 October 2020
Orbit: 563 x 586 km, 98.3° (Epoch: 01 December)

Event Time Altitude Azimuth Distance (km) Brightness Sun altitude
Rises 17:11:48 0° 152° (SSE) 2,794 6.2 -12.5°
Reaches altitude 10° 17:13:59 10° 148° (SSE) 1,896 5.3 -12.9°
Maximum altitude 17:17:58 52° 72° (ENE) 729 3.0 -13.6°
Drops below altitude 10° 17:21:58 10° 356° (N) 1,897 5.5 -14.3°
Sets 17:24:09 0° 352° (N) 2,797 6.5 -14.7°
